West Palm Beach, FL

7:18 AM EDT on September 19, 2019 (GMT -0400)
Palm Beach International

Weather History for KPBI - July, 2019

Change the Weather History Date:

Sunday, July 21, 2019

  Actual Average Record
Temperature  
Mean Temperature 84 °F 83 °F  
Max Temperature 90 °F 90 °F 101 °F (1942)
Min Temperature 77 °F 76 °F 67 °F (1910)
Degree Days  
Heating Degree Days 0 0  
Month to date heating degree days 0 0  
Since 1 June heating degree days 0 0  
Since 1 July heating degree days 0 0  
Cooling Degree Days 19 18  
Month to date cooling degree days 417 367  
Year to date cooling degree days 2389 1966  
Since 1 June cooling degree days 988 857  
Growing Degree Days 22 (Base 50)    
Moisture  
Dew Point 74 °F    
Average Humidity 78    
Maximum Humidity 100    
Minimum Humidity 56    
Precipitation  
Precipitation T in 0.17 in 2.01 in (2007)
Month to date precipitation 0.89 3.99  
Year to date precipitation 29.09 31.00  
Snow  
Snow 0.00 in - - ()
Month to date snowfall 0.0  
Since 1 June snowfall 0.0  
Since 1 July snowfall 0.0  
Snow Depth 0.00 in    
Sea Level Pressure  
Sea Level Pressure 30.06 in    
Wind  
Wind Speed 8 mph (ESE)    
Max Wind Speed 25 mph    
Max Gust Speed 31 mph    
Visibility 10 miles    
Events      
T = Trace of Precipitation, MM = Missing Value Source: NWS Daily Summary

Daily Weather History Graph

Daily Weather History Graph

Search for Another Location

Airport or City:

Astronomy

Jul. 21, 2019 Rise Set
Actual Time 6:39 AM EDT 8:13 PM EDT
Civil Twilight 6:13 AM EDT 8:39 PM EDT
Nautical Twilight 5:43 AM EDT 9:09 PM EDT
Astronomical Twilight 5:11 AM EDT 9:41 PM EDT
Moon 11:30 PM EDT (7/21) 10:39 AM EDT (7/21)
Length of Visible Light 14h 25m
Length of Day
13h 34m
Waning Gibbous, 80% of the Moon is Illuminated
Jul 21
Waning Gibbous
Jul 24
Last Quarter
Jul 31
New
Aug 7
First Quarter
Aug 15
Full

Hourly Weather History & Observations

Time (EDT) Temp. Heat Index Dew Point Humidity Pressure Visibility Wind Dir Wind Speed Gust Speed Precip Events Conditions
12:53 AM 82.0 °F 88.6 °F 75.0 °F 79% 30.07 in 10.0 mi ESE 4.6 mph - N/A   Partly Cloudy
1:53 AM 82.0 °F 88.6 °F 75.0 °F 79% 30.06 in 10.0 mi ESE 5.8 mph - N/A   Scattered Clouds
2:53 AM 78.8 °F - 73.4 °F 83% 30.04 in 10.0 mi Calm Calm - 0.00 in   Mostly Cloudy
3:53 AM 79.0 °F - 73.0 °F 82% 30.03 in 10.0 mi Calm Calm - N/A   Mostly Cloudy
4:53 AM 78.1 °F - 73.0 °F 84% 30.03 in 10.0 mi WNW 4.6 mph - N/A   Scattered Clouds
5:53 AM 78.1 °F - 73.0 °F 84% 30.04 in 10.0 mi Calm Calm - N/A   Scattered Clouds
6:53 AM 79.0 °F - 73.0 °F 82% 30.05 in 10.0 mi NNW 3.5 mph - N/A   Scattered Clouds
7:53 AM 82.0 °F 89.4 °F 75.9 °F 82% 30.07 in 10.0 mi East 6.9 mph - N/A   Scattered Clouds
8:53 AM 84.9 °F 94.1 °F 75.9 °F 74% 30.08 in 10.0 mi SE 9.2 mph - N/A   Mostly Cloudy
9:53 AM 87.1 °F 95.4 °F 73.9 °F 65% 30.07 in 10.0 mi ESE 8.1 mph - N/A   Mostly Cloudy
10:53 AM 88.0 °F 95.6 °F 73.0 °F 61% 30.08 in 10.0 mi ESE 12.7 mph - N/A   Mostly Cloudy
11:53 AM 88.0 °F 97.5 °F 75.0 °F 65% 30.08 in 10.0 mi East 13.8 mph - N/A   Mostly Cloudy
12:53 PM 87.1 °F 95.4 °F 73.9 °F 65% 30.08 in 10.0 mi SE 16.1 mph 20.7 mph N/A   Mostly Cloudy
1:53 PM 86.0 °F 93.8 °F 73.9 °F 67% 30.08 in 10.0 mi ESE 13.8 mph - N/A   Mostly Cloudy
2:53 PM 90.0 °F 96.9 °F 72.0 °F 55% 30.04 in 10.0 mi ESE 15.0 mph - N/A   Mostly Cloudy
3:53 PM 88.0 °F 94.7 °F 72.0 °F 59% 30.04 in 10.0 mi ESE 15.0 mph - N/A   Mostly Cloudy
4:53 PM 87.1 °F 94.5 °F 73.0 °F 63% 30.02 in 10.0 mi ESE 11.5 mph - N/A   Mostly Cloudy
5:53 PM 84.9 °F 92.1 °F 73.9 °F 69% 30.03 in 10.0 mi SE 10.4 mph - N/A   Mostly Cloudy
6:53 PM 86.0 °F 93.0 °F 73.0 °F 65% 30.05 in 10.0 mi SE 8.1 mph - N/A   Mostly Cloudy
7:53 PM 84.9 °F 90.7 °F 72.0 °F 65% 30.06 in 10.0 mi SE 6.9 mph - N/A   Mostly Cloudy
8:53 PM 84.0 °F 90.2 °F 73.0 °F 69% 30.06 in 10.0 mi SE 6.9 mph - N/A   Mostly Cloudy
9:53 PM 79.0 °F - 73.0 °F 82% 30.08 in 10.0 mi WNW 6.9 mph - N/A   Mostly Cloudy
10:53 PM 78.1 °F - 72.0 °F 81% 30.07 in 10.0 mi WNW 4.6 mph - N/A   Mostly Cloudy
11:53 PM 78.1 °F - 72.0 °F 81% 30.06 in 10.0 mi NW 6.9 mph - N/A   Partly Cloudy